Terminal Aerodrome Forecast
Issued by NWS

Home | Current Version | Previous Version | Text Only | Print | Product List | Glossary On
Versions: 1 2 3 4 5 6 7 8 9 10 11 12
000
FTUS46 KSTO 191700
TAFSMF
TAF
KSMF 191720Z 1918/2018 32007KT P6SM SKC
     FM200100 19008KT P6SM SKC
     FM200900 15006KT P6SM SKC=

USA.gov is the U.S. government's official web portal to all federal, state and local government web resources and services.